Weather History for Kleine Brogel, Belgium

Change the Weather History Date:

Monday, December 24, 2012

  Actual Average Record
Temperature  
Mean Temperature 50 °F -  
Max Temperature 55 °F 40 °F 55 °F (2012)
Min Temperature 45 °F 32 °F 21 °F (1996)
Degree Days  
Heating Degree Days 15    
Moisture  
Dew Point 46 °F    
Average Humidity 85    
Maximum Humidity 100    
Minimum Humidity 54    
Precipitation  
Precipitation 0.01 in - - ()
Sea Level Pressure  
Sea Level Pressure 29.66 in    
Wind  
Wind Speed 7 mph ()    
Max Wind Speed 18 mph    
Max Gust Speed 30 mph    
Visibility 4.6 miles    
Events Rain    
Averages and records for this station are not official NWS values.
T = Trace of Precipitation, MM = Missing Value Source: Averaged Metar Reports

Daily Weather History Graph

Daily Weather History Graph

Search for Another Location

Airport:

Trip Planner

Search our weather history database for the weather conditions in past years. The results will help you decide how hot, cold, wet, or windy it might be!

Date:

Astronomy

Dec. 24, 2012 Rise Set
Actual Time 8:41 AM CET 4:34 PM CET
Civil Twilight 8:01 AM CET 5:14 PM CET
Nautical Twilight 7:18 AM CET 5:57 PM CET
Astronomical Twilight 6:37 AM CET 6:37 PM CET
Moon 2:01 PM CET (12/24) 4:53 AM CET (12/24)
Length of Visible Light 9h 13m
Length of Day
7h 53m
Waxing Gibbous, 86% of the Moon is Illuminated
Dec 24
Waxing Gibbous
Dec 28
Full
Jan 5
Last Quarter
Jan 11
New
Jan 19
First Quarter

Hourly Weather History & Observations

Time (CET) Temp. Windchill Dew Point Humidity Pressure Visibility Wind Dir Wind Speed Gust Speed Precip Events Conditions
12:02 AM 48.2 °F - 46.4 °F 93% 29.80 in 1.6 mi SW 9.2 mph - N/A Rain Rain
12:25 AM 48.2 °F - 46.4 °F 93% 29.80 in 2.2 mi SW 8.1 mph - N/A Rain Light Rain
12:55 AM 48.2 °F - 46.4 °F 93% 29.80 in 1.6 mi SW 6.9 mph - N/A Rain Light Rain
1:00 AM 47 °F - 47 °F 98% 29.82 in 2 mi SW 6.7 mph - - Rain Light Rain
1:25 AM 48.2 °F - 46.4 °F 93% 29.80 in 3.1 mi SW 5.8 mph - N/A Rain Light Rain
1:55 AM 48.2 °F - 46.4 °F 93% 29.80 in 3.1 mi SW 5.8 mph - N/A Rain Light Rain
2:25 AM 46.4 °F 43.5 °F 46.4 °F 100% 29.80 in 2.2 mi SW 5.8 mph - N/A Rain Light Rain
2:55 AM 46.4 °F 45.2 °F 46.4 °F 100% 29.80 in 1.9 mi Variable 3.5 mph - N/A Rain Light Rain
3:22 AM 46.4 °F - 46.4 °F 100% 29.80 in 3.1 mi Calm Calm - N/A Rain Light Rain
3:25 AM 46.4 °F - 46.4 °F 100% 29.80 in 2.5 mi Calm Calm - N/A Rain Light Rain
3:55 AM 46.4 °F - 46.4 °F 100% 29.80 in 1.2 mi Variable 2.3 mph - N/A Rain Light Rain
4:00 AM 46 °F - 46 °F 97% 29.81 in 1 mi 2.2 mph - - Rain Light Rain
4:25 AM 46.4 °F - 44.6 °F 93% 29.77 in 1.0 mi Variable 2.3 mph - N/A Rain Light Rain
4:55 AM 46.4 °F - 44.6 °F 93% 29.77 in 1.0 mi Variable 2.3 mph - N/A Rain Light Rain
5:25 AM 46.4 °F - 46.4 °F 100% 29.77 in 1.1 mi Variable 2.3 mph - N/A Rain Light Rain
5:55 AM 46.4 °F - 44.6 °F 93% 29.77 in 1.1 mi Variable 2.3 mph - N/A Rain Light Rain
6:25 AM 46.4 °F 45.2 °F 44.6 °F 93% 29.74 in 1.1 mi Variable 3.5 mph - N/A   Light Drizzle
6:55 AM 46.4 °F 45.2 °F 44.6 °F 93% 29.74 in 1.1 mi Variable 3.5 mph - N/A   Light Drizzle
7:00 AM 46 °F - 46 °F 97% 29.76 in 1 mi 4.5 mph - - Rain Light Drizzle
7:25 AM 46.4 °F 45.2 °F 44.6 °F 93% 29.74 in 2.2 mi Variable 3.5 mph - N/A   Light Drizzle
7:55 AM 46.4 °F 44.3 °F 46.4 °F 100% 29.74 in 1.9 mi ESE 4.6 mph - N/A   Light Drizzle
8:25 AM 46.4 °F - 46.4 °F 100% 29.71 in 2.2 mi Variable 2.3 mph - N/A   Mostly Cloudy
8:55 AM 48.2 °F - 46.4 °F 93% 29.71 in 2.8 mi Variable 2.3 mph - N/A   Mostly Cloudy
9:03 AM 48.2 °F - 46.4 °F 93% 29.71 in 3.1 mi Variable 2.3 mph - N/A   Mostly Cloudy
9:25 AM 50.0 °F - 48.2 °F 94% 29.71 in 4.3 mi SSW 5.8 mph - N/A   Mostly Cloudy
9:55 AM 51.8 °F - 50.0 °F 94% 29.71 in 5.6 mi SSW 10.4 mph - N/A   Overcast
10:00 AM 52 °F - 49 °F 87% 29.73 in 6 mi SSW 11.2 mph - -   Overcast
10:25 AM 51.8 °F - 50.0 °F 94% 29.71 in 6.2 mi SSW 9.2 mph - N/A   Mostly Cloudy
10:55 AM 51.8 °F - 50.0 °F 94% 29.71 in 6.2 mi SSW 11.5 mph - N/A   Mostly Cloudy
11:25 AM 51.8 °F - 50.0 °F 94% 29.71 in 6.2 mi SSW 11.5 mph - N/A   Mostly Cloudy
11:52 AM 53.6 °F - 50.0 °F 88% 29.68 in 6.2 mi SSW 11.5 mph - N/A   Scattered Clouds
11:55 AM 53.6 °F - 48.2 °F 82% 29.68 in 6.2 mi SSW 11.5 mph - N/A   Scattered Clouds
12:25 PM 53.6 °F - 48.2 °F 82% 29.68 in 6.2 mi SSW 9.2 mph - N/A   Partly Cloudy
12:55 PM 53.6 °F - 48.2 °F 82% 29.65 in 6.2 mi SSW 9.2 mph - N/A   Scattered Clouds
1:00 PM 54 °F - 48 °F 75% 29.67 in 9 mi SSW 8.9 mph - -   Partly Cloudy
1:25 PM 53.6 °F - 48.2 °F 82% 29.65 in 6.2 mi WSW 6.9 mph - N/A   Partly Cloudy
1:55 PM 55.4 °F - 48.2 °F 77% 29.59 in 6.2 mi South 4.6 mph - N/A   Scattered Clouds
2:25 PM 55.4 °F - 48.2 °F 77% 29.59 in 6.2 mi South 5.8 mph - N/A   Partly Cloudy
2:55 PM 53.6 °F - 48.2 °F 82% 29.56 in 6.2 mi South 5.8 mph - N/A   Scattered Clouds
3:25 PM 53.6 °F - 46.4 °F 77% 29.56 in 6.2 mi South 5.8 mph - N/A   Scattered Clouds
3:55 PM 53.6 °F - 46.4 °F 77% 29.53 in 6.2 mi South 6.9 mph - N/A   Mostly Cloudy
4:00 PM 54 °F - 46 °F 67% 29.55 in 9 mi South 6.7 mph - -   Clear
4:25 PM 53.6 °F - 44.6 °F 72% 29.53 in 6.2 mi SSW 6.9 mph - N/A   Mostly Cloudy
4:55 PM 53.6 °F - 44.6 °F 72% 29.53 in 6.2 mi SSW 10.4 mph - N/A   Mostly Cloudy
5:25 PM 53.6 °F - 42.8 °F 67% 29.53 in 6.2 mi SSW 10.4 mph - N/A   Partly Cloudy
5:55 PM 51.8 °F - 42.8 °F 71% 29.53 in 6.2 mi SSW 11.5 mph - N/A   Partly Cloudy
6:25 PM 53.6 °F - 42.8 °F 67% 29.53 in 6.2 mi SSW 12.7 mph - N/A   Scattered Clouds
6:55 PM 53.6 °F - 42.8 °F 67% 29.53 in 6.2 mi SSW 17.3 mph - N/A   Mostly Cloudy
7:00 PM 54 °F - 42 °F 54% 29.55 in 9 mi SSW 15.7 mph - -   Scattered Clouds
7:25 PM 53.6 °F - 42.8 °F 67% 29.53 in 6.2 mi SSW 17.3 mph - N/A   Mostly Cloudy
7:55 PM 53.6 °F - 44.6 °F 72% 29.53 in 6.2 mi SW 18.4 mph 29.9 mph N/A   Scattered Clouds
8:25 PM 53.6 °F - 44.6 °F 72% 29.53 in 6.2 mi SW 15.0 mph - N/A   Mostly Cloudy
8:55 PM 53.6 °F - 44.6 °F 72% 29.56 in 6.2 mi SW 17.3 mph - N/A   Mostly Cloudy
9:25 PM 55.4 °F - 46.4 °F 72% 29.56 in 6.2 mi SW 16.1 mph - N/A   Mostly Cloudy
9:55 PM 55.4 °F - 46.4 °F 72% 29.56 in 6.2 mi SW 16.1 mph - N/A   Mostly Cloudy
10:00 PM 54 °F - 46 °F 67% 29.57 in 9 mi SW 15.7 mph - -   Mostly Cloudy
10:25 PM 53.6 °F - 46.4 °F 77% 29.56 in 6.2 mi SW 13.8 mph - N/A   Mostly Cloudy
10:55 PM 53.6 °F - 46.4 °F 77% 29.56 in 6.2 mi SW 13.8 mph - N/A   Mostly Cloudy
11:25 PM 53.6 °F - 46.4 °F 77% 29.53 in 6.2 mi SW 13.8 mph - N/A   Mostly Cloudy
11:32 PM 53.6 °F - 46.4 °F 77% 29.53 in 6.2 mi SW 12.7 mph - N/A   Mostly Cloudy
11:55 PM 53.6 °F - 46.4 °F 77% 29.53 in 6.2 mi SW 10.4 mph - N/A   Mostly Cloudy